TimeEDT,TemperatureF,Dew PointF,Humidity,Sea Level PressureIn,VisibilityMPH,Wind Direction,Wind SpeedMPH,Gust SpeedMPH,PrecipitationIn,Events,Conditions,WindDirDegrees,DateUTC
12:54 AM,55.0,41.0,59,29.95,10.0,West,10.4,-,N/A,,Clear,280,2012-10-07 04:54:00
1:54 AM,54.0,39.9,59,29.96,10.0,West,9.2,-,N/A,,Clear,270,2012-10-07 05:54:00
2:54 AM,51.1,41.0,68,29.97,10.0,SW,4.6,-,N/A,,Partly Cloudy,230,2012-10-07 06:54:00
3:54 AM,52.0,39.0,61,29.99,10.0,West,5.8,-,N/A,,Partly Cloudy,280,2012-10-07 07:54:00
4:54 AM,51.1,39.0,63,30.00,10.0,West,5.8,-,N/A,,Scattered Clouds,280,2012-10-07 08:54:00
5:54 AM,51.1,39.0,63,30.02,10.0,West,5.8,-,N/A,,Mostly Cloudy,280,2012-10-07 09:54:00
6:54 AM,50.0,37.9,63,30.04,10.0,WNW,6.9,-,N/A,,Scattered Clouds,290,2012-10-07 10:54:00
7:54 AM,51.1,39.0,63,30.06,10.0,West,8.1,-,N/A,,Mostly Cloudy,280,2012-10-07 11:54:00
8:54 AM,54.0,39.9,59,30.07,10.0,West,6.9,-,N/A,,Mostly Cloudy,280,2012-10-07 12:54:00
9:54 AM,55.0,39.0,55,30.06,10.0,WNW,4.6,-,N/A,,Mostly Cloudy,300,2012-10-07 13:54:00
10:54 AM,55.9,39.0,53,30.06,10.0,Variable,3.5,-,N/A,,Mostly Cloudy,0,2012-10-07 14:54:00
11:54 AM,55.9,37.9,51,30.06,10.0,West,6.9,-,N/A,,Mostly Cloudy,280,2012-10-07 15:54:00
12:54 PM,57.0,37.0,47,30.06,10.0,WNW,5.8,-,N/A,,Overcast,300,2012-10-07 16:54:00
1:54 PM,57.0,39.0,51,30.04,10.0,WNW,5.8,-,N/A,,Overcast,300,2012-10-07 17:54:00
2:54 PM,57.0,37.9,49,30.05,10.0,West,6.9,-,N/A,,Overcast,270,2012-10-07 18:54:00
3:54 PM,55.0,43.0,64,30.05,10.0,SSW,6.9,-,0.00,Rain,Light Rain,210,2012-10-07 19:54:00
4:54 PM,53.1,43.0,69,30.03,10.0,South,9.2,-,0.01,,Overcast,170,2012-10-07 20:54:00
5:54 PM,52.0,44.1,74,30.04,10.0,SSW,10.4,-,0.00,,Overcast,210,2012-10-07 21:54:00
6:54 PM,52.0,42.1,69,30.04,10.0,SSW,10.4,-,N/A,,Overcast,210,2012-10-07 22:54:00
7:54 PM,53.1,41.0,64,30.03,10.0,SSW,6.9,-,N/A,,Overcast,210,2012-10-07 23:54:00
8:54 PM,52.0,44.1,74,30.02,10.0,South,6.9,-,N/A,,Overcast,190,2012-10-08 00:54:00
9:54 PM,51.1,45.0,80,30.04,10.0,SW,9.2,-,0.00,Rain,Light Rain,220,2012-10-08 01:54:00
10:54 PM,50.0,44.1,80,30.06,7.0,West,11.5,-,0.01,Rain,Light Rain,270,2012-10-08 02:54:00
11:54 PM,48.9,44.1,83,30.08,10.0,WNW,9.2,-,0.06,Rain,Light Rain,290,2012-10-08 03:54:00